Location: El Bakhil
(32.7726°N, 5.5387°W)
Time: 08:29:08
(UTC+00:00)

AO-73 - Pass Details

Date: 04 August 2021
Orbit: 581 x 661 km, 97.6° (Epoch: 27 September)

Event Time Altitude Azimuth Distance (km) Brightness Sun altitude
Rises 04:16:16 0° 28° (NNE) 2,968 ? -16.1°
Reaches altitude 10° 04:18:52 10° 42° (NE) 2,064 ? -15.7°
Maximum altitude 04:22:30 24° 96° (E) 1,370 ? -15.0°
Drops below altitude 10° 04:26:08 10° 149° (SSE) 2,070 ? -14.4°
Sets 04:28:43 0° 164° (SSE) 2,980 ? -13.9°
